Notice: Use of undefined constant NAME - assumed 'NAME' in /home/bismarckweather/public_html/wxwuhistory.php on line 72

Notice: Use of undefined constant NAME - assumed 'NAME' in /home/bismarckweather/public_html/wxwuhistory.php on line 72
^^
Station Historical Data
 
Daily Summary for August 17, 2018 Units:  English    Metric   Both
« Previous Day
Next Day »
Daily Weekly Monthly Yearly Custom
  Current: High: Low: Average:
Temperature: 80.8 °F 85.9 °F 59.2 °F 71.8 °F
Dew Point: 57.5 °F 65.6 °F 56.2 °F 59.7 °F
Humidity: 45% 91% 40% 69%
Wind Speed: 5mph 13mph 1mph 7.3mph
Wind Gust: 9mph 18mph - -
WindSE - - ESE
Pressure: 29.93 in 30.00 in 29.93 in -
Precipitation: 0 in      
Historical Graphs
 
 
Tabular Data for August 17, 2018
Time Temperature Dew Point Pressure Wind Wind Speed Wind Gust Humidity Rainfall Rate (Hourly) solar Conditions
00:04 71.1 °F 58.7 °F 29.97 in NE 7 mph 15 mph 65% 0 in 0.00 W/m2
00:09 70.7 °F 58.8 °F 29.98 in East 9 mph 14 mph 66% 0 in 0.00 W/m2
00:14 70.5 °F 59 °F 29.98 in East 10 mph 16 mph 67% 0 in 0.00 W/m2
00:19 70.3 °F 58.8 °F 29.98 in ENE 9 mph 16 mph 67% 0 in 0.00 W/m2
00:24 70.2 °F 59.1 °F 29.98 in ENE 10 mph 15 mph 68% 0 in 0.00 W/m2
00:29 70.1 °F 59.5 °F 29.98 in East 9 mph 14 mph 69% 0 in 0.00 W/m2
00:34 69.9 °F 59.3 °F 29.98 in ENE 9 mph 13 mph 69% 0 in 0.00 W/m2
00:39 69.8 °F 59.6 °F 29.98 in ENE 12 mph 14 mph 70% 0 in 0.00 W/m2
00:44 69.7 °F 59.5 °F 29.98 in East 7 mph 16 mph 70% 0 in 0.00 W/m2
00:49 69.7 °F 59.9 °F 29.98 in ENE 12 mph 16 mph 71% 0 in 0.00 W/m2
00:54 69.7 °F 59.9 °F 29.98 in ENE 9 mph 15 mph 71% 0 in 0.00 W/m2
00:59 69.5 °F 59.7 °F 29.98 in East 10 mph 15 mph 71% 0 in 0.00 W/m2
01:04 69 °F 59.6 °F 29.98 in East 8 mph 13 mph 72% 0 in 0.00 W/m2
01:09 68.5 °F 59.5 °F 29.98 in East 10 mph 14 mph 73% 0 in 0.00 W/m2
01:14 67.9 °F 59.3 °F 29.98 in ENE 9 mph 14 mph 74% 0 in 0.00 W/m2
01:19 67.5 °F 59.3 °F 29.98 in ENE 9 mph 15 mph 75% 0 in 0.00 W/m2
01:24 67.4 °F 59.2 °F 29.98 in ESE 9 mph 15 mph 75% 0 in 0.00 W/m2
01:29 67.4 °F 59.2 °F 29.97 in ENE 12 mph 18 mph 75% 0 in 0.00 W/m2
01:34 67.4 °F 59.2 °F 29.97 in ENE 12 mph 18 mph 75% 0 in 0.00 W/m2
01:39 67.3 °F 59.1 °F 29.98 in East 11 mph 15 mph 75% 0 in 0.00 W/m2
01:44 67.1 °F 58.9 °F 29.98 in East 10 mph 15 mph 75% 0 in 0.00 W/m2
01:49 66.8 °F 59 °F 29.98 in East 8 mph 15 mph 76% 0 in 0.00 W/m2
01:54 66.4 °F 58.6 °F 29.98 in East 9 mph 15 mph 76% 0 in 0.00 W/m2
01:59 66 °F 58.6 °F 29.98 in East 8 mph 13 mph 77% 0 in 0.00 W/m2
02:04 65.8 °F 58.7 °F 29.98 in East 9 mph 13 mph 78% 0 in 0.00 W/m2
02:09 65.6 °F 58.6 °F 29.98 in East 9 mph 13 mph 78% 0 in 0.00 W/m2
02:14 65.4 °F 58.7 °F 29.98 in East 7 mph 11 mph 79% 0 in 0.00 W/m2
02:19 65.3 °F 58.6 °F 29.99 in East 8 mph 11 mph 79% 0 in 0.00 W/m2
02:24 65.1 °F 58.4 °F 29.99 in ESE 5 mph 10 mph 79% 0 in 0.00 W/m2
02:29 65 °F 58.3 °F 29.99 in East 6 mph 10 mph 79% 0 in 0.00 W/m2
02:34 64.8 °F 58.5 °F 29.99 in ENE 5 mph 10 mph 80% 0 in 0.00 W/m2
02:39 64.6 °F 58.3 °F 29.99 in East 5 mph 10 mph 80% 0 in 0.00 W/m2
02:44 64.4 °F 58.1 °F 29.99 in East 5 mph 9 mph 80% 0 in 0.00 W/m2
02:49 64.2 °F 58.2 °F 29.99 in SE 1 mph 9 mph 81% 0 in 0.00 W/m2
02:54 63.9 °F 58 °F 29.99 in East 3 mph 8 mph 81% 0 in 0.00 W/m2
02:59 63.7 °F 58.1 °F 29.99 in ENE 3 mph 7 mph 82% 0 in 0.00 W/m2
03:04 63.4 °F 57.8 °F 29.99 in East 6 mph 7 mph 82% 0 in 0.00 W/m2
03:09 63.1 °F 57.9 °F 29.98 in East 7 mph 8 mph 83% 0 in 0.00 W/m2
03:14 63 °F 57.8 °F 29.98 in East 7 mph 8 mph 83% 0 in 0.00 W/m2
03:19 62.9 °F 57.7 °F 29.98 in East 6 mph 8 mph 83% 0 in 0.00 W/m2
03:24 62.7 °F 57.8 °F 29.98 in East 3 mph 7 mph 84% 0 in 0.00 W/m2
03:29 62.5 °F 57.6 °F 29.98 in East 6 mph 7 mph 84% 0 in 0.00 W/m2
03:34 62.4 °F 57.8 °F 29.98 in East 6 mph 7 mph 85% 0 in 0.00 W/m2
03:39 62.4 °F 57.8 °F 29.98 in East 8 mph 9 mph 85% 0 in 0.00 W/m2
03:44 62.4 °F 57.8 °F 29.99 in East 5 mph 9 mph 85% 0 in 0.00 W/m2
03:49 62.2 °F 57.6 °F 29.98 in East 7 mph 8 mph 85% 0 in 0.00 W/m2
03:54 62 °F 57.4 °F 29.98 in East 8 mph 8 mph 85% 0 in 0.00 W/m2
03:59 62 °F 57.8 °F 29.99 in East 7 mph 9 mph 86% 0 in 0.00 W/m2
04:04 62 °F 57.8 °F 29.98 in ENE 8 mph 9 mph 86% 0 in 0.00 W/m2
04:09 62.1 °F 57.9 °F 29.99 in East 8 mph 10 mph 86% 0 in 0.00 W/m2
04:14 62.2 °F 58 °F 29.99 in East 10 mph 11 mph 86% 0 in 0.00 W/m2
04:19 62.4 °F 58.2 °F 29.98 in East 7 mph 11 mph 86% 0 in 0.00 W/m2
04:24 62.4 °F 58.2 °F 29.99 in ENE 7 mph 10 mph 86% 0 in 0.00 W/m2
04:29 62.5 °F 57.9 °F 29.98 in ENE 7 mph 10 mph 85% 0 in 0.00 W/m2
04:34 62.5 °F 57.9 °F 29.98 in East 8 mph 10 mph 85% 0 in 0.00 W/m2
04:39 62.4 °F 57.8 °F 29.99 in East 6 mph 10 mph 85% 0 in 0.00 W/m2
04:44 62.3 °F 57.7 °F 29.99 in ENE 8 mph 10 mph 85% 0 in 0.00 W/m2
04:49 62.2 °F 58 °F 29.98 in East 7 mph 10 mph 86% 0 in 0.00 W/m2
04:54 62.1 °F 57.9 °F 29.99 in East 7 mph 9 mph 86% 0 in 0.00 W/m2
04:59 61.9 °F 57.7 °F 29.98 in ENE 7 mph 9 mph 86% 0 in 0.00 W/m2
05:04 61.9 °F 57.7 °F 29.99 in East 7 mph 11 mph 86% 0 in 0.00 W/m2
05:09 61.9 °F 57.7 °F 29.99 in East 8 mph 11 mph 86% 0 in 0.00 W/m2
05:14 61.9 °F 57.7 °F 29.98 in East 10 mph 10 mph 86% 0 in 0.00 W/m2
05:19 61.9 °F 58 °F 29.98 in ENE 5 mph 10 mph 87% 0 in 0.00 W/m2
05:24 61.9 °F 57.7 °F 29.98 in East 6 mph 10 mph 86% 0 in 0.00 W/m2
05:29 61.9 °F 58 °F 29.99 in ENE 5 mph 9 mph 87% 0 in 0.00 W/m2
05:34 61.8 °F 57.6 °F 29.99 in East 6 mph 9 mph 86% 0 in 0.00 W/m2
05:39 61.7 °F 57.5 °F 29.99 in East 8 mph 8 mph 86% 0 in 0.00 W/m2
05:44 61.5 °F 57.6 °F 29.99 in ENE 7 mph 9 mph 87% 0 in 0.00 W/m2
05:49 61.4 °F 57.5 °F 29.98 in East 7 mph 9 mph 87% 0 in 0.00 W/m2
05:54 61.4 °F 57.5 °F 29.98 in East 9 mph 11 mph 87% 0 in 0.00 W/m2
05:59 61.3 °F 57.4 °F 29.98 in ENE 7 mph 11 mph 87% 0 in 0.00 W/m2
06:04 61.3 °F 57.4 °F 29.98 in ENE 8 mph 13 mph 87% 0 in 0.00 W/m2
06:09 61.3 °F 57.4 °F 29.98 in ENE 10 mph 13 mph 87% 0 in 0.00 W/m2
06:14 61.3 °F 57.4 °F 29.99 in ENE 8 mph 11 mph 87% 0 in 0.00 W/m2
06:19 61.2 °F 57.3 °F 29.99 in ENE 4 mph 11 mph 87% 0 in 0.00 W/m2
06:24 61.1 °F 57.2 °F 29.99 in East 8 mph 9 mph 87% 0 in 0.00 W/m2
06:29 60.9 °F 57 °F 29.99 in East 8 mph 9 mph 87% 0 in 0.00 W/m2
06:34 60.7 °F 56.8 °F 29.99 in East 9 mph 10 mph 87% 0 in 0.00 W/m2
06:39 60.5 °F 56.6 °F 29.99 in East 8 mph 10 mph 87% 0 in 0.00 W/m2
06:44 60.3 °F 56.7 °F 29.99 in ENE 8 mph 10 mph 88% 0 in 0.00 W/m2
06:49 60.2 °F 56.6 °F 29.99 in East 7 mph 10 mph 88% 0 in 0.00 W/m2
06:54 60 °F 56.4 °F 29.99 in ENE 8 mph 11 mph 88% 0 in 5.00 W/m2
06:59 60 °F 56.7 °F 29.99 in East 8 mph 11 mph 89% 0 in 9.00 W/m2
07:04 59.9 °F 56.6 °F 29.99 in East 9 mph 11 mph 89% 0 in 11.00 W/m2
07:09 59.8 °F 56.6 °F 29.99 in East 9 mph 11 mph 89% 0 in 14.00 W/m2
07:14 59.7 °F 56.5 °F 30.00 in East 8 mph 11 mph 89% 0 in 18.00 W/m2
07:19 59.5 °F 56.3 °F 30.00 in East 8 mph 10 mph 89% 0 in 19.00 W/m2
07:24 59.4 °F 56.2 °F 30.00 in East 7 mph 10 mph 89% 0 in 23.00 W/m2
07:29 59.2 °F 56.3 °F 30.00 in East 7 mph 10 mph 90% 0 in 26.00 W/m2
07:34 59.2 °F 56.3 °F 30.00 in East 9 mph 9 mph 90% 0 in 32.00 W/m2
07:39 59.2 °F 56.3 °F 30.00 in East 6 mph 9 mph 90% 0 in 35.00 W/m2
07:44 59.2 °F 56.3 °F 30.00 in ENE 5 mph 9 mph 90% 0 in 40.00 W/m2
07:49 59.4 °F 56.5 °F 30.00 in East 7 mph 9 mph 90% 0 in 46.00 W/m2
07:54 59.5 °F 56.6 °F 30.00 in East 7 mph 8 mph 90% 0 in 51.00 W/m2
07:59 59.5 °F 56.9 °F 30.00 in East 6 mph 8 mph 91% 0 in 56.00 W/m2
08:04 59.6 °F 57 °F 30.00 in East 5 mph 8 mph 91% 0 in 62.00 W/m2
08:09 59.8 °F 57.2 °F 30.00 in East 7 mph 8 mph 91% 0 in 67.00 W/m2
08:14 60 °F 57.1 °F 30.00 in East 7 mph 8 mph 90% 0 in 74.00 W/m2
08:19 60.2 °F 57.3 °F 30.00 in ESE 5 mph 9 mph 90% 0 in 83.00 W/m2
08:24 60.4 °F 57.5 °F 30.00 in ESE 8 mph 9 mph 90% 0 in 91.00 W/m2
08:29 60.6 °F 57.7 °F 30.00 in East 7 mph 9 mph 90% 0 in 100.00 W/m2
08:34 60.8 °F 57.8 °F 30.00 in East 8 mph 9 mph 90% 0 in 107.00 W/m2
08:39 61 °F 58 °F 30.00 in East 5 mph 9 mph 90% 0 in 118.00 W/m2
08:44 61.1 °F 58.1 °F 30.00 in ENE 7 mph 9 mph 90% 0 in 128.00 W/m2
08:49 61.4 °F 58.4 °F 30.00 in East 7 mph 10 mph 90% 0 in 139.00 W/m2
08:54 61.7 °F 58.7 °F 30.00 in East 6 mph 10 mph 90% 0 in 149.00 W/m2
08:59 62 °F 59 °F 30.00 in ESE 4 mph 9 mph 90% 0 in 162.00 W/m2
09:04 62.4 °F 59.1 °F 30.00 in ESE 4 mph 9 mph 89% 0 in 171.00 W/m2
09:09 62.8 °F 59.5 °F 30.00 in ESE 5 mph 9 mph 89% 0 in 185.00 W/m2
09:14 63.2 °F 59.6 °F 30.00 in East 6 mph 9 mph 88% 0 in 202.00 W/m2
09:19 63.6 °F 60 °F 30.00 in East 6 mph 9 mph 88% 0 in 218.00 W/m2
09:24 64 °F 60.1 °F 30.00 in ESE 8 mph 9 mph 87% 0 in 236.00 W/m2
09:29 64.4 °F 60.1 °F 30.00 in East 5 mph 10 mph 86% 0 in 258.00 W/m2
09:34 64.9 °F 60.6 °F 30.00 in East 7 mph 10 mph 86% 0 in 283.00 W/m2
09:39 65.4 °F 60.4 °F 30.00 in ENE 7 mph 9 mph 84% 0 in 294.00 W/m2
09:44 65.9 °F 60.9 °F 30.00 in ESE 7 mph 9 mph 84% 0 in 276.00 W/m2
09:49 66.3 °F 60.6 °F 30.00 in ESE 9 mph 9 mph 82% 0 in 250.00 W/m2
09:54 66.6 °F 60.9 °F 30.00 in East 8 mph 9 mph 82% 0 in 246.00 W/m2
09:59 66.8 °F 61.1 °F 30.00 in ESE 8 mph 9 mph 82% 0 in 302.00 W/m2
10:04 67.2 °F 61.2 °F 30.00 in ESE 4 mph 9 mph 81% 0 in 315.00 W/m2
10:09 67.6 °F 61.6 °F 30.00 in SE 5 mph 9 mph 81% 0 in 322.00 W/m2
10:14 68 °F 61.6 °F 30.00 in ESE 5 mph 9 mph 80% 0 in 329.00 W/m2
10:19 68.5 °F 61.7 °F 30.00 in East 7 mph 9 mph 79% 0 in 325.00 W/m2
10:24 69 °F 61.9 °F 30.00 in East 6 mph 9 mph 78% 0 in 355.00 W/m2
10:29 69.5 °F 62 °F 29.99 in ESE 5 mph 9 mph 77% 0 in 376.00 W/m2
10:34 70.1 °F 62.6 °F 29.99 in SE 4 mph 8 mph 77% 0 in 353.00 W/m2
10:39 70.5 °F 62.6 °F 30.00 in ESE 4 mph 8 mph 76% 0 in 318.00 W/m2
10:44 70.7 °F 62.4 °F 30.00 in ESE 5 mph 9 mph 75% 0 in 292.00 W/m2
10:49 70.7 °F 62.8 °F 30.00 in ESE 5 mph 9 mph 76% 0 in 246.00 W/m2
10:54 70.8 °F 62.9 °F 30.00 in SE 6 mph 8 mph 76% 0 in 243.00 W/m2
10:59 70.7 °F 62.4 °F 29.99 in ESE 3 mph 8 mph 75% 0 in 218.00 W/m2
11:04 70.5 °F 62.6 °F 29.99 in ESE 5 mph 9 mph 76% 0 in 234.00 W/m2
11:09 70.7 °F 62.8 °F 29.99 in ESE 5 mph 9 mph 76% 0 in 313.00 W/m2
11:14 71.1 °F 63.1 °F 29.99 in ESE 4 mph 9 mph 76% 0 in 318.00 W/m2
11:19 71.6 °F 63.6 °F 29.99 in SE 4 mph 8 mph 76% 0 in 387.00 W/m2
11:24 72.1 °F 63.4 °F 29.99 in SE 8 mph 9 mph 74% 0 in 418.00 W/m2
11:29 72.3 °F 63.5 °F 29.99 in SSE 7 mph 9 mph 74% 0 in 434.00 W/m2
11:34 72.9 °F 64.1 °F 29.99 in SSE 8 mph 9 mph 74% 0 in 446.00 W/m2
11:39 73.3 °F 64.1 °F 29.99 in SE 8 mph 10 mph 73% 0 in 450.00 W/m2
11:44 73.7 °F 64.1 °F 29.99 in SE 9 mph 10 mph 72% 0 in 468.00 W/m2
11:49 74.2 °F 64.2 °F 29.99 in SSE 5 mph 10 mph 71% 0 in 469.00 W/m2
11:54 74.6 °F 64.6 °F 29.99 in SE 7 mph 10 mph 71% 0 in 487.00 W/m2
11:59 74.9 °F 64.5 °F 29.99 in ESE 8 mph 10 mph 70% 0 in 503.00 W/m2
12:04 75.2 °F 64.7 °F 29.99 in SE 6 mph 10 mph 70% 0 in 494.00 W/m2
12:09 75.6 °F 64.7 °F 29.99 in ESE 7 mph 10 mph 69% 0 in 515.00 W/m2
12:14 75.6 °F 64.7 °F 29.99 in SE 7 mph 9 mph 69% 0 in 517.00 W/m2
12:19 76.1 °F 64.8 °F 29.99 in ESE 7 mph 10 mph 68% 0 in 520.00 W/m2
12:24 76.2 °F 64.9 °F 29.99 in SE 7 mph 10 mph 68% 0 in 527.00 W/m2
12:29 76.5 °F 65.1 °F 29.99 in ESE 4 mph 10 mph 68% 0 in 527.00 W/m2
12:34 77.3 °F 65.5 °F 29.99 in SE 8 mph 10 mph 67% 0 in 529.00 W/m2
12:39 77.7 °F 65.4 °F 29.99 in SE 6 mph 11 mph 66% 0 in 538.00 W/m2
12:44 78 °F 65.3 °F 29.99 in SSE 7 mph 11 mph 65% 0 in 527.00 W/m2
12:49 78.3 °F 65.1 °F 29.99 in SSE 5 mph 11 mph 64% 0 in 512.00 W/m2
12:54 78.8 °F 65.6 °F 29.99 in SSE 6 mph 11 mph 64% 0 in 520.00 W/m2
12:59 79.4 °F 65.2 °F 29.99 in SSE 7 mph 11 mph 62% 0 in 545.00 W/m2
13:04 79.6 °F 64.5 °F 29.99 in SE 8 mph 11 mph 60% 0 in 536.00 W/m2
13:09 80 °F 64.9 °F 29.99 in SE 7 mph 11 mph 60% 0 in 538.00 W/m2
13:14 80.1 °F 65 °F 29.99 in SE 7 mph 11 mph 60% 0 in 547.00 W/m2
13:19 80.6 °F 64.9 °F 29.99 in ESE 9 mph 11 mph 59% 0 in 559.00 W/m2
13:24 80.9 °F 65.2 °F 29.99 in SSE 7 mph 11 mph 59% 0 in 573.00 W/m2
13:29 81 °F 64.8 °F 29.98 in ESE 5 mph 11 mph 58% 0 in 563.00 W/m2
13:34 81.3 °F 65.1 °F 29.98 in ESE 5 mph 11 mph 58% 0 in 552.00 W/m2
13:39 81.8 °F 64.6 °F 29.98 in SSE 7 mph 10 mph 56% 0 in 552.00 W/m2
13:44 82.3 °F 64.5 °F 29.98 in SSE 7 mph 10 mph 55% 0 in 568.00 W/m2
13:49 82.4 °F 64.1 °F 29.98 in SSW 7 mph 11 mph 54% 0 in 571.00 W/m2
13:54 82.6 °F 63.7 °F 29.98 in SSE 9 mph 12 mph 53% 0 in 543.00 W/m2
13:59 82.5 °F 63.6 °F 29.98 in SE 9 mph 12 mph 53% 0 in 446.00 W/m2
14:04 82.6 °F 64.8 °F 29.98 in SSE 12 mph 12 mph 55% 0 in 547.00 W/m2
14:09 82.7 °F 63.8 °F 29.98 in SE 9 mph 12 mph 53% 0 in 536.00 W/m2
14:14 83 °F 63.6 °F 29.98 in SSE 9 mph 13 mph 52% 0 in 550.00 W/m2
14:19 83 °F 63.6 °F 29.98 in SSE 6 mph 13 mph 52% 0 in 534.00 W/m2
14:24 83 °F 63 °F 29.98 in SE 5 mph 13 mph 51% 0 in 533.00 W/m2
14:29 83.2 °F 63.2 °F 29.98 in SE 7 mph 12 mph 51% 0 in 541.00 W/m2
14:34 83.5 °F 63.5 °F 29.98 in SSE 2 mph 12 mph 51% 0 in 545.00 W/m2
14:39 83.9 °F 63.3 °F 29.98 in South 5 mph 12 mph 50% 0 in 541.00 W/m2
14:44 84.1 °F 62.3 °F 29.97 in SSE 5 mph 12 mph 48% 0 in 534.00 W/m2
14:49 84 °F 61.6 °F 29.97 in SE 9 mph 13 mph 47% 0 in 531.00 W/m2
14:54 84.2 °F 59.9 °F 29.97 in SSE 12 mph 13 mph 44% 0 in 519.00 W/m2
14:59 84.4 °F 60.7 °F 29.97 in South 9 mph 13 mph 45% 0 in 503.00 W/m2
15:04 84.8 °F 60.5 °F 29.97 in SSE 7 mph 13 mph 44% 0 in 501.00 W/m2
15:09 84.9 °F 60.6 °F 29.97 in SSE 7 mph 12 mph 44% 0 in 487.00 W/m2
15:14 85.2 °F 60.2 °F 29.97 in SSE 7 mph 12 mph 43% 0 in 475.00 W/m2
15:19 85.2 °F 60.2 °F 29.97 in SSE 7 mph 13 mph 43% 0 in 462.00 W/m2
15:24 85.2 °F 60.2 °F 29.97 in SE 10 mph 13 mph 43% 0 in 461.00 W/m2
15:29 85.3 °F 60.9 °F 29.96 in SE 11 mph 12 mph 44% 0 in 450.00 W/m2
15:34 85.5 °F 61.1 °F 29.96 in SSE 8 mph 12 mph 44% 0 in 436.00 W/m2
15:39 85.7 °F 60.6 °F 29.96 in SE 9 mph 13 mph 43% 0 in 424.00 W/m2
15:44 85.3 °F 60.9 °F 29.96 in SE 9 mph 13 mph 44% 0 in 422.00 W/m2
15:49 85.2 °F 60.8 °F 29.96 in ESE 10 mph 12 mph 44% 0 in 424.00 W/m2
15:54 85.4 °F 60.4 °F 29.96 in SE 8 mph 12 mph 43% 0 in 420.00 W/m2
15:59 85.4 °F 59.7 °F 29.96 in SSE 12 mph 12 mph 42% 0 in 420.00 W/m2
16:04 85.5 °F 60.4 °F 29.96 in SE 10 mph 12 mph 43% 0 in 417.00 W/m2
16:09 85.6 °F 59.9 °F 29.96 in SE 8 mph 12 mph 42% 0 in 413.00 W/m2
16:14 85.4 °F 59.7 °F 29.96 in SE 8 mph 12 mph 42% 0 in 406.00 W/m2
16:19 85.6 °F 59.9 °F 29.95 in SE 9 mph 11 mph 42% 0 in 390.00 W/m2
16:24 85.8 °F 60.7 °F 29.95 in SSE 10 mph 11 mph 43% 0 in 383.00 W/m2
16:29 85.8 °F 60.1 °F 29.95 in SE 8 mph 11 mph 42% 0 in 376.00 W/m2
16:34 85.7 °F 59.3 °F 29.95 in SSE 8 mph 11 mph 41% 0 in 374.00 W/m2
16:39 85.5 °F 59.1 °F 29.95 in SSE 7 mph 11 mph 41% 0 in 362.00 W/m2
16:44 85.8 °F 59.4 °F 29.95 in SSE 7 mph 11 mph 41% 0 in 352.00 W/m2
16:49 85.9 °F 59.5 °F 29.95 in SE 9 mph 11 mph 41% 0 in 339.00 W/m2
16:54 85.9 °F 59.5 °F 29.95 in SE 9 mph 13 mph 41% 0 in 327.00 W/m2
16:59 85.8 °F 59.4 °F 29.95 in SSE 7 mph 13 mph 41% 0 in 316.00 W/m2
17:04 85.7 °F 58.6 °F 29.95 in SE 13 mph 13 mph 40% 0 in 306.00 W/m2
17:09 85.5 °F 59.1 °F 29.95 in SSE 9 mph 13 mph 41% 0 in 297.00 W/m2
17:14 85.4 °F 59 °F 29.95 in SSE 13 mph 13 mph 41% 0 in 279.00 W/m2
17:19 85.2 °F 58.8 °F 29.95 in SE 9 mph 13 mph 41% 0 in 267.00 W/m2
17:24 85.3 °F 58.9 °F 29.95 in SE 8 mph 12 mph 41% 0 in 255.00 W/m2
17:29 85.1 °F 58.8 °F 29.95 in SSE 7 mph 14 mph 41% 0 in 241.00 W/m2
17:34 85 °F 58.7 °F 29.95 in SE 9 mph 14 mph 41% 0 in 232.00 W/m2
17:39 84.9 °F 58.6 °F 29.95 in SE 6 mph 14 mph 41% 0 in 225.00 W/m2
17:44 84.8 °F 59.2 °F 29.95 in SSE 5 mph 14 mph 42% 0 in 213.00 W/m2
17:49 84.8 °F 58.5 °F 29.95 in SE 6 mph 12 mph 41% 0 in 206.00 W/m2
17:54 84.6 °F 58.3 °F 29.94 in SSE 11 mph 12 mph 41% 0 in 197.00 W/m2
17:59 84.4 °F 58.1 °F 29.94 in SE 11 mph 13 mph 41% 0 in 190.00 W/m2
18:04 84.3 °F 58 °F 29.94 in SE 8 mph 13 mph 41% 0 in 183.00 W/m2
18:09 84.2 °F 57.9 °F 29.95 in SSE 7 mph 14 mph 41% 0 in 176.00 W/m2
18:14 84 °F 57.8 °F 29.94 in SSE 11 mph 14 mph 41% 0 in 171.00 W/m2
18:19 84 °F 57.8 °F 29.94 in SSE 5 mph 13 mph 41% 0 in 167.00 W/m2
18:24 83.9 °F 57.7 °F 29.94 in SE 8 mph 13 mph 41% 0 in 160.00 W/m2
18:29 83.8 °F 57.6 °F 29.94 in SE 9 mph 13 mph 41% 0 in 155.00 W/m2
18:34 83.7 °F 57.5 °F 29.94 in SE 8 mph 12 mph 41% 0 in 148.00 W/m2
18:39 83.6 °F 57.4 °F 29.94 in SE 9 mph 11 mph 41% 0 in 137.00 W/m2
18:44 83.4 °F 57.9 °F 29.94 in SSE 6 mph 10 mph 42% 0 in 127.00 W/m2
18:49 83.2 °F 57.7 °F 29.94 in SE 6 mph 10 mph 42% 0 in 116.00 W/m2
18:54 82.9 °F 57.5 °F 29.94 in SE 7 mph 9 mph 42% 0 in 107.00 W/m2
18:59 82.7 °F 57.3 °F 29.94 in SE 9 mph 10 mph 42% 0 in 102.00 W/m2
19:04 82.5 °F 57.1 °F 29.94 in SSE 6 mph 10 mph 42% 0 in 97.00 W/m2
19:09 82.3 °F 56.9 °F 29.94 in SE 6 mph 10 mph 42% 0 in 90.00 W/m2
19:14 82.2 °F 56.8 °F 29.94 in SE 7 mph 9 mph 42% 0 in 86.00 W/m2
19:19 81.9 °F 56.6 °F 29.93 in SE 6 mph 9 mph 42% 0 in 81.00 W/m2
19:24 81.6 °F 56.9 °F 29.93 in SE 5 mph 9 mph 43% 0 in 74.00 W/m2
19:29 81.4 °F 57.4 °F 29.93 in SE 5 mph 9 mph 44% 0 in 67.00 W/m2
19:34 81.1 °F 57.1 °F 29.93 in SE 6 mph 9 mph 44% 0 in 60.00 W/m2
19:39 80.8 °F 57.5 °F 29.93 in SE 5 mph 9 mph 45% 0 in 54.00 W/m2
Bismarck, North Dakota, USA
Compliments of Weather Underground - 4 mb